Home   Weather   Chengdu   Past weeks

Flag for China Past Weather in Chengdu, Sichuan, China — Yesterday and Last 2 Weeks

Now
61 °F

Light rain. Fog.


Feels Like: 61 °F
Forecast: 60 / 63 °F
Wind: 1 mph from North

Location: Chengdu Airport

Current Time: Oct 18, 2018 at 2:23:19 am

Latest Report: Oct 18, 2018 at 1:00 am


Visibility: 2 mi

Pressure: 29.98 "Hg

Humidity: 94%

Dew Point: 59 °F

Location of ChengduLocation

Past Weather in Chengdu — Graph

°F

Chengdu Temperature Yesterday

Maximum temperature yesterday: 66 °F (at 12:00 pm)
Minimum temperature yesterday: 61 °F (at 2:00 am)
Average temperature yesterday: 63 °F

High & Low Weather Summary for the Past Weeks

 TemperatureHumidityPressure
High77 °F (Oct 10, 3:00 pm)100% (Oct 3, 1:00 am)30.30 "Hg (Oct 3, 1:00 am)
Low52 °F (Oct 10, 6:00 am)34% (Oct 10, 4:00 pm)29.95 "Hg (Oct 17, 3:00 pm)
Average63 °F83%30.13 "Hg
* Reported Oct 3 1:00 am — Oct 18 1:00 am, Chengdu. Weather by CustomWeather, © 2018

Note: Actual official high and low records may vary slightly from our data, if they occured in-between our weather recording intervals... More about our weather records

Advertising

Chengdu Weather History for the Previous 24 Hours

Scroll right to see more
 ConditionsComfort  
Time TempWeatherWind HumidityBarometerVisibility
1:00 am
Thu, Oct 18
61 °FLight rain. Fog.1 mph94%29.98 "Hg2 mi
12:00 am61 °FLight rain. Fog.No wind94%30.01 "Hg2 mi
11:00 pm
Wed, Oct 17
61 °FFog.1 mph94%30.01 "Hg2 mi
10:00 pm61 °FFog.3 mph94%30.01 "Hg2 mi
9:00 pm63 °FFog.3 mph88%30.01 "Hg2 mi
8:00 pm63 °FFog.3 mph88%29.98 "Hg2 mi
7:00 pm63 °FFog.3 mph88%29.95 "Hg2 mi
6:00 pm63 °FFog.3 mph88%29.95 "Hg2 mi
5:00 pm63 °FFog.1 mph94%29.95 "Hg2 mi
4:00 pm63 °FFog.3 mph88%29.95 "Hg2 mi
3:00 pm63 °FFog.6 mph88%29.95 "Hg3 mi
2:00 pm66 °FFog.No wind78%29.98 "Hg3 mi
1:00 pm66 °FFog.3 mph78%30.01 "Hg2 mi
12:00 pm66 °FFog.1 mph83%30.04 "Hg2 mi
11:00 am64 °FFog.3 mph83%30.07 "Hg2 mi
10:00 am64 °FFog.1 mph88%30.07 "Hg1 mi
9:00 am63 °FFog.1 mph94%30.07 "Hg1 mi
8:00 am61 °FFog.No wind100%30.07 "Hg1 mi
7:00 am61 °FFog.No wind100%30.07 "Hg2 mi
6:00 am61 °FFog.1 mph94%30.04 "Hg2 mi
5:00 am61 °FFog.No wind100%30.04 "Hg2 mi
4:00 am61 °FFog.No wind94%30.07 "Hg2 mi
3:00 am61 °FFog.3 mph94%30.07 "Hg2 mi
2:00 am61 °FFog.No wind94%30.07 "Hg2 mi
Weather by CustomWeather, © 2018

See weather overview